Location: Newark
(44.9861°N, 0.2536°E)
Time: 20:07:19
(UTC+00:00)

HuskySat-1 - Pass Details

Date: 18 July 2020
Orbit: 457 x 471 km, 51.6° (Epoch: 11 August)

Event Time Altitude Azimuth Distance (km) Brightness Sun altitude
Rises 02:19:30 0° 299° (WNW) 2,493 ? -17.3°
Reaches altitude 10° 02:21:42 10° 305° (NW) 1,613 ? -17.1°
Maximum altitude 02:25:15 51° 22° (NNE) 589 ? -16.8°
Drops below altitude 10° 02:28:47 10° 100° (E) 1,600 ? -16.4°
Sets 02:30:57 0° 105° (ESE) 2,470 ? -16.2°
